EW5349 Weather Reports


Display with metric or nautical units.
time (UTC)temp
F
wind
direction
speed
MPH
gust
MPH
rain 1hr
in
rain 24hr
in
rain mn
in
humidity
%
barometer
mb
20190221123001 48 11 0.0 0.0 0.00 0.00 0.00 81 1013.1
20190221121702 47 11 0.0 0.0 0.00 0.00 0.00 81 1013.0
20190221120156 47 11 0.0 1.0 0.00 0.00 0.00 81 1013.0
20190221114652 47 304 0.0 0.0 0.00 0.00 0.00 82 1013.1
20190221113148 47 304 0.0 0.0 0.00 0.00 0.00 82 1013.0
20190221111645 47 274 0.0 0.0 0.00 0.00 0.00 84 1013.0
20190221110139 47 274 0.0 0.0 0.00 0.00 0.00 85 1013.1
20190221104635 47 274 0.0 0.0 0.00 0.00 0.00 86 1013.2
20190221103122 46 274 0.0 0.0 0.00 0.00 0.00 84 1013.2
20190221101623 46 274 0.0 0.0 0.00 0.00 0.00 87 1013.3
20190221100122 46 274 0.0 0.0 0.00 0.00 0.00 88 1013.4
20190221094714 45 274 0.0 0.0 0.00 0.00 0.00 88 1013.6
20190221093136 45 274 0.0 0.0 0.00 0.00 0.00 88 1013.9
20190221091624 44 274 0.0 0.0 0.00 0.00 0.00 86 1013.9
20190221090132 45 274 0.0 0.0 0.00 0.00 0.00 88 1013.9
20190221084712 45 274 0.0 0.0 0.00 0.00 0.00 89 1014.3
20190221083127 44 274 0.0 0.0 0.00 0.00 0.00 89 1014.3
20190221081631 44 274 0.0 0.0 0.00 0.00 0.00 88 1014.2
20190221080104 43 274 0.0 0.0 0.00 0.00 0.00 89 1014.5
20190221074601 43 274 0.0 0.0 0.00 0.00 0.00 88 1014.4
20190221073101 43 274 0.0 0.0 0.00 0.00 0.00 87 1014.6
20190221071611 43 274 0.0 0.0 0.00 0.00 0.00 86 1014.6
20190221070058 42 274 0.0 0.0 0.00 0.00 0.00 87 1014.9
20190221064556 42 274 0.0 0.0 0.00 0.00 0.00 88 1014.6
20190221063105 42 274 0.0 0.0 0.00 0.00 0.00 88 1014.5
20190221061556 41 274 0.0 0.0 0.00 0.00 0.00 88 1014.6
20190221060049 41 274 0.0 0.0 0.00 0.00 0.00 88 1014.6
20190221054523 41 274 0.0 0.0 0.00 0.00 0.00 86 1014.7
20190221053054 41 274 0.0 0.0 0.00 0.00 0.00 85 1014.7
20190221051559 42 275 0.0 0.0 0.00 0.00 0.00 83 1014.8
20190221050041 43 274 0.0 0.0 0.00 0.01 0.00 83 1014.6
20190221044519 44 274 0.0 0.0 0.00 0.01 0.00 80 1014.6
20190221043017 44 274 0.0 0.0 0.00 0.01 0.00 78 1014.5
20190221041511 44 274 0.0 1.0 0.00 0.01 0.00 80 1014.3
20190221040029 42 338 0.0 0.0 0.00 0.01 0.00 84 1014.0
20190221034522 43 337 0.0 0.0 0.00 0.01 0.00 83 1014.0
20190221033049 44 337 0.0 0.0 0.00 0.01 0.00 83 1014.2
20190221031514 44 338 0.0 0.0 0.00 0.01 0.00 80 1014.2
20190221030015 45 337 0.0 0.0 0.00 0.01 0.00 78 1014.0
20190221024509 46 337 0.0 0.0 0.00 0.01 0.00 75 1013.9
20190221023009 47 337 0.0 0.0 0.00 0.01 0.00 73 1013.9
20190221021511 49 338 0.0 0.0 0.00 0.01 0.00 71 1013.5
20190221020015 50 337 0.0 0.0 0.00 0.01 0.00 66 1013.2
20190221014518 51 338 0.0 1.0 0.00 0.01 0.00 62 1013.3
20190221013011 49 90 0.0 0.0 0.00 0.01 0.00 66 1013.5
20190221011504 50 90 0.0 0.0 0.00 0.01 0.00 66 1013.4
20190221010003 50 90 0.0 0.0 0.00 0.01 0.00 66 1013.4
20190221004511 50 90 0.0 0.0 0.00 0.01 0.00 62 1013.3
20190221003006 51 90 0.0 0.0 0.00 0.01 0.00 62 1013.4
20190221001759 53 90 0.0 0.0 0.00 0.01 0.00 63 1013.4
20190221000400 56 90 0.0 0.0 0.00 0.01 0.00 59 1013.4
20190220234632 57 90 0.0 0.0 0.00 0.01 0.00 55 1013.2
20190220233203 59 90 0.0 0.0 0.00 0.01 0.00 53 1013.0
20190220231714 60 90 0.0 0.0 0.00 0.01 0.00 41 1012.8
20190220230318 61 90 0.0 0.0 0.00 0.02 0.00 34 1013.0
20190220224727 62 158 0.0 0.0 0.00 0.02 0.00 41 1013.0
20190220223138 62 122 0.0 0.0 0.00 0.02 0.00 33 1013.2
20190220221627 62 143 0.0 0.0 0.00 0.02 0.00 33 1013.4
20190220220206 62 249 0.0 2.0 0.00 0.02 0.00 29 1013.4
20190220214745 62 34 0.0 2.0 0.00 0.02 0.00 28 1013.3
20190220213207 62 174 0.0 1.0 0.00 0.02 0.00 38 1013.5
20190220211632 62 139 0.0 1.0 0.00 0.02 0.00 39 1013.3
20190220210134 62 30 0.0 2.0 0.00 0.02 0.00 38 1013.4
20190220204721 62 60 0.0 3.0 0.00 0.02 0.00 39 1013.6
20190220203138 62 238 0.0 2.0 0.00 0.02 0.00 39 1013.7
20190220201657 62 92 0.0 3.0 0.00 0.02 0.00 41 1014.0
20190220200133 62 53 0.0 2.0 0.00 0.03 0.00 44 1014.3
20190220194701 63 32 0.0 3.0 0.00 0.03 0.00 47 1014.6
20190220193131 63 273 0.0 1.0 0.00 0.03 0.00 47 1014.9
20190220191619 62 242 0.0 1.0 0.00 0.03 0.00 49 1015.2
20190220190106 61 258 0.0 1.0 0.00 0.05 0.00 48 1015.5
20190220184602 61 35 0.0 2.0 0.00 0.05 0.00 51 1015.7
20190220183121 61 39 0.0 2.0 0.00 0.05 0.00 52 1016.1
20190220181601 59 63 0.0 1.0 0.00 0.05 0.00 53 1016.5
20190220180136 58 248 0.0 3.0 0.00 0.08 0.00 59 1016.7
20190220174542 57 70 0.0 4.0 0.00 0.08 0.00 58 1016.8
20190220173105 56 289 0.0 2.0 0.00 0.08 0.00 58 1016.9
20190220171530 54 276 0.0 1.0 0.00 0.08 0.00 62 1016.8
20190220170044 53 74 0.0 2.0 0.00 0.13 0.00 68 1017.0
20190220164518 51 27 0.0 1.0 0.00 0.13 0.00 69 1017.2
20190220163019 50 44 0.0 1.0 0.00 0.13 0.00 72 1017.1
20190220161510 48 228 0.0 2.0 0.00 0.13 0.00 79 1017.2
20190220154654 44 29 0.0 1.0 0.00 0.18 0.00 85 1017.4
20190220153139 43 49 0.0 1.0 0.00 0.18 0.00 88 1017.2
20190220151605 42 229 0.0 1.0 0.00 0.18 0.00 89 1017.3
20190220150103 41 60 0.0 2.0 0.00 0.18 0.00 91 1017.2
20190220144634 41 75 0.0 0.0 0.00 0.18 0.00 91 1017.0
20190220143147 40 60 0.0 0.0 0.00 0.18 0.00 94 1016.9
20190220141608 40 207 0.0 0.0 0.00 0.18 0.00 93 1016.7
20190220140058 39 179 0.0 0.0 0.00 0.18 0.00 93 1016.5
20190220134556 39 143 0.0 1.0 0.00 0.18 0.00 94 1016.4
20190220133132 39 350 0.0 1.0 0.00 0.18 0.00 94 1016.3
20190220131617 39 18 0.0 0.0 0.00 0.18 0.00 94 1016.2
20190220130034 39 335 0.0 1.0 0.00 0.18 0.00 94 1016.0
20190220124530 39 41 0.0 0.0 0.00 0.18 0.00 94 1015.9